"Pseudo-MPEC" for CAXVRU2

Created 2024 Oct 6 10:22:06 UT using Find_Orb

Click here for an explanation of pseudo-MPECs

 
 Astrometry: 
     CAXVRU2*1C2024 10 01.43677406 30 14.440+30 39 52.67   ~A1BM 20.69GVNEOCPG96
     CAXVRU2 1C2024 10 01.44838406 30 20.992+30 39 40.82   ~A1BM 21.14GVNEOCPG96
     CAXVRU2 1C2024 10 01.45359306 30 23.908+30 39 35.57   ~A1BM 20.89GVNEOCPG96
     CAXVRU2 KC2024 10 01.50319806 30 51.700+30 38 46.50   ~A1Cq 20.66GVNEOCPI52
     CAXVRU2 KC2024 10 01.51218906 30 56.770+30 38 38.40   ~A1Cq 21.55GVNEOCPI52
     CAXVRU2 KC2024 10 02.42863806 39 41.870+30 21 52.30   ~A2Aq 20.85GVNEOCPI52
     CAXVRU2 KC2024 10 02.43224006 39 43.870+30 21 48.20   ~A2Aq 19.93GVNEOCPI52
     CAXVRU2 KC2024 10 02.43584506 39 46.000+30 21 43.70   ~A2Aq 20.27GVNEOCPI52
     CAXVRU2  C2024 10 02.45501806 39 56.700+30 21 22.06   ~A2Bb 20.4 GVNEOCPH01
     CAXVRU2  C2024 10 02.46035206 39 59.736+30 21 15.86   ~A2Bb 20.9 GVNEOCPH01
     CAXVRU2  C2024 10 02.46893506 40 04.603+30 21 05.98   ~A2Bb 21.2 GVNEOCPH01
     CAXVRU2  C2024 10 02.47584306 40 08.496+30 20 58.01   ~A2Bb 20.8 GVNEOCPH01
     CAXVRU2 KC2024 10 03.34377106 48 29.38 +30 02 37.1    ~A3Ab 20.8 GXNEOCP858
     CAXVRU2 KC2024 10 03.35760606 48 37.38 +30 02 19.7    ~A3Ab 21.4 GXNEOCP858
     CAXVRU2 KC2024 10 03.37675606 48 47.99 +30 01 56.3    ~A39q 21.6 GVNEOCPH21
     CAXVRU2 KC2024 10 03.38234806 48 51.22 +30 01 48.8    ~A39q 21.3 GVNEOCPH21

Station data:
(858) Tebbutt Observatory, Edgewood  (N35.093869 W106.220000)  US/New Mexico.
    Observer F. B. Zoltowski. 0.16-m refractor + CCD0.51-m Schmidt-Cassegrain
   + CCD.
(G96) Mt. Lemmon Survey  (N32.442729 W110.788720)  US/Arizona.  Observer E.
   J. Christensen. 1.5-m reflector + 10K CCD.
(H01) Magdalena Ridge Observatory, Socorro  (N33.984833 W107.189333)  US/New
   Mexico.  Observers W. H. Ryan, E. V. Ryan. Measurer W. H. Ryan. 2.4-m
   f/8.9 reflector + CCD.
(H21) Astronomical Research Observatory, Westfield  (N39.483054 W87.968270)
   US/Illinois.  Observer R. Holmes. Measurers S. Foglia, L. Buzzi, T.
   Linder, R. Holmes. 0.76-m f/3.0 astrograph + CCD0.81-m f/4.0 astrograph +
   CCD0.61-m f/4.5 astrograph + CCD0.40-m f/5.32 astrograph + CCD.
(I52) Steward Observatory, Mt. Lemmon Station  (N32.442570 W110.788920)
   US/Arizona.  Observers T. A. Pruyne, B. M. Africano, E. J. Christensen, G.
   A. Farneth, D. C. Fuls, A. R. Gibbs, A. D. Grauer, H. Gröller, J. A.
   Johnson, R. A. Kowalski, S. M. Larson, G. J. Leonard, D. Rankin, R. L.
   Seaman, F. C. Shelly, K. W. Wierzchoś. 1.0-m prime focus + CCD.

Orbital elements:  CAXVRU2
   Perihelion 2024 Nov 23.15041 +/- 1.48 TT =  3:36:35 (JD 2460637.65041)
Epoch 2024 Oct  3.0 TT = JDT 2460586.5   Earth MOID: 0.0291   Ma: 0.0763
M 339.65854535 +/- 3.2              (J2000 ecliptic)             AutoNEOCP
n   0.39767918 +/- 0.0524           Peri.  219.43662 +/- 1.9
a   1.83138986 +/- 0.161            Node   241.35280 +/- 1.0
e   0.5583954 +/- 0.0368            Incl.    4.66532 +/- 0.13
P   2.478/905.235d         H 20.77  G  0.15   U 10.8
q 0.80875009 +/- 0.00371    Q 2.85402963 +/- 0.318
From 16 observations 2024 Oct. 1-3 (46.7 hr); mean residual 0".30
Residuals in arcseconds: 
241001 G96  .15-  .63+    241002 I52  .41-  .09+    241003 858  .53-  .44-    
241001 G96  .22+  .05-    241002 I52  .69+  .33-    241003 858  .15+  .12-    
241001 G96  .10+  .26-    241002 H01  .24-  .12+    241003 H21  .06-  .35+    
241001 I52  .31-  .65-    241002 H01  .04-  .04+    241003 H21  .42+  .15+    
241001 I52  .09+  .21+    241002 H01  .07+  .05+    
241002 I52  .16+  .12+    241002 H01  .14-  .07+    

Ephemerides (geocentric):
Date (UTC) HH   RA             Dec           delta  r     elong  mag " sig PA
---- --------  ------------   ------------  ------ ------ -----  --- --------
2024 10 06 10  07 18 10.070   +28 40 24.99  .35805 1.0390  86.2 21.2 1.46 148
2024 10 06 11  07 18 34.229   +28 39 06.72  .35798 1.0387  86.1 21.2 1.47 148
2024 10 06 12  07 18 58.384   +28 37 48.15  .35791 1.0383  86.1 21.2 1.48 149
2024 10 06 13  07 19 22.536   +28 36 29.28  .35784 1.0380  86.0 21.2 1.49 150
2024 10 06 14  07 19 46.686   +28 35 10.13  .35777 1.0377  86.0 21.2 1.49 150
2024 10 06 15  07 20 10.832   +28 33 50.68  .35770 1.0373  85.9 21.2 1.50 151
2024 10 06 16  07 20 34.975   +28 32 30.93  .35763 1.0370  85.9 21.2 1.51 152
2024 10 06 17  07 20 59.114   +28 31 10.90  .35756 1.0367  85.8 21.2 1.52 152
2024 10 06 18  07 21 23.250   +28 29 50.57  .35749 1.0364  85.8 21.2 1.53 153
2024 10 06 19  07 21 47.382   +28 28 29.95  .35743 1.0360  85.7 21.2 1.54 154
2024 10 06 20  07 22 11.511   +28 27 09.04  .35736 1.0357  85.7 21.2 1.55 154
2024 10 06 21  07 22 35.636   +28 25 47.84  .35730 1.0354  85.6 21.2 1.56 155
2024 10 06 22  07 22 59.756   +28 24 26.35  .35724 1.0350  85.6 21.2 1.57 156
2024 10 06 23  07 23 23.873   +28 23 04.57  .35717 1.0347  85.5 21.2 1.58 157
2024 10 07 00  07 23 47.985   +28 21 42.50  .35711 1.0344  85.5 21.2 1.59 157
2024 10 07 01  07 24 12.094   +28 20 20.14  .35705 1.0341  85.4 21.2 1.60 158
2024 10 07 02  07 24 36.197   +28 18 57.49  .35699 1.0337  85.4 21.2 1.61 159
2024 10 07 03  07 25 00.297   +28 17 34.55  .35693 1.0334  85.3 21.2 1.62 160
2024 10 07 04  07 25 24.391   +28 16 11.33  .35687 1.0331  85.3 21.2 1.63 161
2024 10 07 05  07 25 48.482   +28 14 47.82  .35681 1.0327  85.2 21.2 1.64 161
2024 10 07 06  07 26 12.567   +28 13 24.02  .35675 1.0324  85.2 21.2 1.65 162
2024 10 07 07  07 26 36.647   +28 11 59.93  .35669 1.0321  85.1 21.2 1.66 163
2024 10 07 08  07 27 00.723   +28 10 35.56  .35664 1.0318  85.1 21.2 1.67 164
2024 10 07 09  07 27 24.793   +28 09 10.91  .35658 1.0314  85.0 21.2 1.69 165
2024 10 07 10  07 27 48.858   +28 07 45.97  .35653 1.0311  85.0 21.2 1.70 166
2024 10 07 11  07 28 12.918   +28 06 20.75  .35647 1.0308  84.9 21.2 1.71 167
2024 10 07 12  07 28 36.972   +28 04 55.24  .35642 1.0305  84.9 21.2 1.72 167
2024 10 07 13  07 29 01.021   +28 03 29.45  .35637 1.0301  84.8 21.2 1.73 168
2024 10 07 14  07 29 25.064   +28 02 03.37  .35632 1.0298  84.8 21.2 1.74 169
2024 10 07 15  07 29 49.101   +28 00 37.02  .35626 1.0295  84.7 21.2 1.76 170
2024 10 07 16  07 30 13.133   +27 59 10.38  .35621 1.0291  84.7 21.2 1.77 171
2024 10 07 17  07 30 37.159   +27 57 43.46  .35616 1.0288  84.6 21.2 1.78 172
2024 10 07 18  07 31 01.178   +27 56 16.26  .35612 1.0285  84.6 21.2 1.80 173
2024 10 07 19  07 31 25.192   +27 54 48.78  .35607 1.0282  84.5 21.2 1.81 174
2024 10 07 20  07 31 49.199   +27 53 21.02  .35602 1.0278  84.5 21.2 1.83 175
2024 10 07 21  07 32 13.200   +27 51 52.99  .35597 1.0275  84.4 21.2 1.84 176
2024 10 07 22  07 32 37.194   +27 50 24.67  .35593 1.0272  84.3 21.2 1.86 177
2024 10 07 23  07 33 01.182   +27 48 56.08  .35588 1.0269  84.3 21.2 1.87 178
2024 10 08 00  07 33 25.164   +27 47 27.20  .35584 1.0265  84.2 21.2 1.89 179
2024 10 08 01  07 33 49.138   +27 45 58.06  .35579 1.0262  84.2 21.2 1.90   0
2024 10 08 02  07 34 13.106   +27 44 28.63  .35575 1.0259  84.1 21.2 1.92   1
2024 10 08 03  07 34 37.066   +27 42 58.93  .35571 1.0256  84.1 21.2 1.94   2
2024 10 08 04  07 35 01.020   +27 41 28.96  .35567 1.0252  84.0 21.2 1.96   3
2024 10 08 05  07 35 24.967   +27 39 58.71  .35563 1.0249  84.0 21.2 1.97   4
2024 10 08 06  07 35 48.906   +27 38 28.19  .35559 1.0246  83.9 21.2 1.99   5
2024 10 08 07  07 36 12.838   +27 36 57.39  .35555 1.0243  83.9 21.2 2.01   6
2024 10 08 08  07 36 36.763   +27 35 26.32  .35551 1.0239  83.8 21.2 2.03   7
2024 10 08 09  07 37 00.679   +27 33 54.98  .35547 1.0236  83.8 21.2 2.06   8